Temp
77 83 88 87 73 74 70 76 88 83 83 91 91 86 83 86 81 64 84 87 90 84 79 79 74 75 76 76 76 76 76 76 76 76 76 76 76 76 76 76 77 77 78 77 77 76 75 74 73
89 93 91 84 69 66 73 85 81 86 89 91 89 88 86 83 88 83 83 87 91 86 82 79 74 74 75 75 75 76 76 76 76 76 76 76 76 76 76 76 76 77 78 78 77 75 74 73 72
83 92 82 76 72 68 74 83 86 88 90 88 87 92 88 84 89 87 87 88 89 87 85 79 73 74 75 75 75 75 75 75 75 75 76 76 76 76 76 75 75 76 77 77 75 74 72 71 71
88 87 84 71 71 80 83 86 88 87 89 91 89 84 91 91 89 90 89 88 86 85 87 72 72 73 75 75 75 75 74 74 74 75 76 76 76 76 75 75 75 75 75 74 74 72 71 70 70
89 84 72 71 75 83 88 89 89 85 87 89 89 83 86 90 92 89 87 87 83 84 82 77 72 73 74 75 75 74 73 73 74 74 75 75 75 75 74 73 73 73 73 73 72 71 70 70 69
79 82 69 69 77 86 89 91 89 86 88 89 86 85 87 91 88 87 87 85 85 82 80 78 73 73 73 74 73 73 73 73 73 74 74 74 73 73 72 72 72 72 72 72 71 70 69 69 69
76 75 70 74 76 80 86 91 86 86 86 87 93 83 87 86 89 87 86 84 84 82 79 76 76 75 72 71 71 71 71 72 72 72 72 71 71 71 71 71 71 71 71 71 70 69 68 68 68
82 79 71 74 73 77 87 87 89 86 84 95 93 82 82 87 88 86 86 83 81 80 79 77 77 76 75 74 70 70 70 70 71 70 70 69 69 70 70 70 70 70 70 70 69 68 68 67 68
89 71 67 72 76 81 88 84 89 93 87 89 91 90 90 88 86 84 82 81 77 77 77 77 77 77 76 75 72 70 70 70 69 69 68 68 69 69 70 70 69 69 69 68 68 67 66 66 67
79 70 71 81 84 83 87 87 87 86 85 85 87 92 91 85 83 80 78 76 75 73 75 78 77 78 77 77 72 72 71 71 71 70 69 68 68 68 69 68 68 68 68 67 67 66 66 69 67
81 72 78 80 84 86 84 84 88 84 80 86 85 88 92 84 82 81 81 79 78 77 74 76 77 77 77 75 73 71 70 70 69 68 68 68 69 67 66 64 66 64 66 64 64 64 65 68 67
75 81 82 83 85 84 81 85 81 83 83 89 89 90 90 87 83 82 82 82 81 77 75 77 77 76 74 72 72 68 67 67 66 67 67 68 68 67 65 64 66 64 64 62 61 62 64 66 67
78 81 84 86 85 84 85 80 80 81 86 90 89 88 87 88 89 88 87 86 83 77 75 76 77 75 73 70 68 67 66 66 66 66 68 68 68 66 66 66 66 65 63 62 61 61 63 64 68
79 80 80 82 81 82 78 79 81 82 88 87 87 86 87 86 88 87 87 86 83 77 74 75 75 74 71 67 68 67 66 65 64 63 64 66 68 67 66 62 62 61 62 61 61 61 61 61 64
80 72 76 78 79 79 83 75 76 84 87 85 85 85 86 85 87 83 82 81 82 77 75 73 73 72 69 66 66 67 66 64 63 63 63 63 65 66 64 62 60 61 60 61 61 61 61 59 61
70 71 64 76 80 83 81 67 79 85 84 80 81 82 83 84 85 86 84 84 85 82 74 72 71 66 68 67 67 66 64 62 62 63 62 63 63 65 63 61 60 61 60 61 61 61 62 58 57
69 61 66 71 83 81 79 71 80 84 82 80 79 80 81 82 85 86 85 86 83 84 73 71 67 67 65 66 66 65 64 64 64 64 65 64 61 60 58 59 58 60 61 61 63 61 61 59 55
62 64 67 66 75 76 72 71 77 80 80 79 80 80 81 81 83 85 82 82 82 78 74 68 66 64 62 62 62 61 62 61 60 61 61 59 58 58 57 58 58 60 60 61 61 59 59 58 57
69 65 63 69 75 71 68 69 73 77 77 76 78 78 80 81 83 82 79 81 77 73 69 68 63 62 61 57 56 55 57 59 60 61 60 58 58 58 58 60 59 62 60 60 59 59 56 55 55
66 62 62 68 73 70 68 66 72 75 75 76 76 77 79 79 78 79 80 78 75 72 70 67 64 61 61 58 58 57 57 57 59 59 59 59 59 59 60 60 60 60 60 59 59 58 55 54 53
64 61 62 61 67 70 65 62 66 73 75 77 78 80 81 78 76 76 77 74 75 74 70 68 65 62 61 60 58 57 57 57 57 59 59 59 59 60 61 60 60 59 61 59 58 57 55 51 52
57 68 66 62 59 51 65 46 59 66 69 73 75 76 76 74 75 74 71 70 73 74 73 71 67 64 62 61 58 57 57 56 57 59 59 58 60 60 60 60 61 60 61 59 58 58 56 54 50
61 67 61 60 56 54 54 50 57 66 64 70 72 71 72 72 72 71 70 70 70 68 68 69 66 66 64 62 59 57 57 58 60 60 59 59 58 59 60 60 59 58 60 58 58 57 55 55 53
68 61 59 57 54 42 52 51 52 58 63 64 70 71 71 71 70 71 71 70 68 67 65 65 66 67 64 62 60 57 57 57 56 57 57 57 57 58 59 59 58 58 59 58 57 56 55 54 55
62 54 40 38 41 39 55 52 55 64 63 60 62 64 65 66 67 67 68 68 68 66 66 65 65 65 63 60 59 57 57 57 57 57 58 57 56 56 56 57 57 56 57 57 57 55 55 55 55
54 51 39 29 34 41 53 43 53 67 62 61 63 62 63 62 64 65 67 66 66 66 65 65 65 63 62 59 57 58 58 56 55 55 56 56 56 55 56 55 55 56 56 56 57 56 56 55 53
51 43 51 35 39 34 42 50 58 63 58 57 57 59 57 59 61 62 63 63 64 64 64 62 64 64 63 58 56 55 55 55 53 53 53 53 54 55 54 55 55 55 55 56 56 55 54 52 50
52 56 40 36 26 26 39 44 46 47 48 52 52 52 56 58 59 60 62 62 63 64 62 62 64 64 62 60 56 55 54 54 53 52 50 50 51 53 52 52 54 55 55 54 54 52 50 51 49
48 44 42 40 38 27 25 36 49 46 49 49 51 53 54 56 58 60 61 62 62 62 63 61 61 61 61 60 59 54 53 52 50 49 48 48 48 49 50 50 50 51 52 51 50 50 50 49 47
51 46 46 32 30 31 27 27 50 50 51 52 52 55 57 59 60 60 61 62 62 60 61 64 62 61 56 55 53 51 50 49 47 47 46 46 46 47 48 48 47 47 48 48 48 48 47 47 44
MSLP
1008.19 1008.07 1007.62 1006.59 1005.61 1003.18 1000.45 998.42 997.07 997.65 998.21 998.55 999.02 999.52 999.73 1000.02 1000.69 1003.45 1005.76 1005.38 1004.36 1005.38 1006.62 1007.27 1008.10 1008.69 1008.98 1009.29 1009.81 1010.30 1010.71 1011.11 1011.42 1011.95 1012.47 1012.96 1013.30 1013.66 1014.05 1014.45 1014.82 1015.08 1015.40 1015.72 1015.96 1016.13 1016.25 1016.50 1016.61
1007.48 1006.60 1006.19 1005.24 1003.92 1001.05 998.36 997.36 997.41 997.85 998.25 999.03 999.63 999.67 999.51 999.58 1000.44 1002.98 1004.19 1004.66 1004.00 1004.86 1006.14 1007.11 1007.73 1008.32 1008.89 1009.31 1009.70 1010.28 1010.74 1011.14 1011.61 1012.13 1012.61 1013.02 1013.47 1013.84 1014.25 1014.54 1014.89 1015.11 1015.41 1015.84 1016.21 1016.51 1016.60 1016.76 1016.90
1008.09 1006.50 1005.47 1003.93 1002.15 999.95 997.88 997.60 997.46 997.94 998.72 999.26 999.25 999.34 999.63 999.99 1000.79 1002.00 1003.12 1003.87 1004.09 1004.85 1005.79 1006.90 1007.64 1008.16 1008.57 1008.97 1009.33 1009.93 1010.54 1011.03 1011.55 1012.05 1012.61 1012.96 1013.31 1013.66 1014.19 1014.58 1014.96 1015.15 1015.63 1016.08 1016.47 1016.86 1017.10 1017.09 1017.12
1006.98 1005.73 1004.99 1002.86 1000.55 998.52 997.29 997.24 997.70 998.12 998.66 999.12 999.41 999.29 999.64 1000.48 1001.28 1002.10 1003.35 1004.11 1004.98 1005.62 1005.63 1007.17 1007.73 1008.27 1008.58 1008.93 1009.30 1009.70 1010.24 1010.86 1011.34 1011.91 1012.40 1012.79 1013.12 1013.49 1014.01 1014.43 1015.04 1015.54 1016.02 1016.49 1016.92 1017.22 1017.41 1017.39 1017.24
1006.35 1004.97 1003.32 1001.65 999.70 997.76 996.87 997.37 997.70 998.20 998.53 998.70 999.23 999.31 999.57 1000.92 1001.99 1002.78 1003.40 1004.13 1004.83 1005.42 1006.05 1007.41 1007.79 1008.23 1008.54 1008.84 1009.43 1009.95 1010.03 1010.67 1011.37 1011.95 1012.47 1013.08 1013.51 1013.88 1014.30 1014.09 1015.15 1016.03 1016.54 1016.93 1017.31 1017.55 1017.63 1017.71 1017.61
1005.19 1004.14 1002.59 1000.38 998.18 996.96 996.89 997.24 997.84 998.36 998.53 998.47 999.19 999.65 999.87 1000.69 1002.12 1003.39 1004.20 1004.72 1004.99 1005.15 1006.00 1006.86 1007.78 1008.37 1008.69 1009.04 1009.51 1009.93 1010.54 1010.81 1011.35 1011.84 1012.49 1013.02 1013.47 1014.07 1014.36 1015.18 1014.64 1016.07 1016.59 1016.90 1017.44 1017.78 1018.02 1018.00 1017.72
1004.74 1003.50 1002.01 1000.35 998.82 997.46 996.96 997.38 998.04 998.38 998.62 998.52 998.64 999.14 999.96 1001.10 1001.83 1002.78 1003.88 1004.90 1005.41 1006.01 1006.50 1006.99 1007.83 1008.23 1008.75 1009.04 1009.65 1009.95 1010.48 1011.06 1011.41 1011.95 1012.56 1013.29 1013.91 1014.27 1014.61 1015.55 1015.69 1016.47 1016.99 1017.30 1017.59 1017.83 1018.16 1018.34 1018.08
1004.03 1003.14 1001.91 1000.77 999.32 997.92 997.42 998.03 998.57 998.88 998.89 998.83 999.22 999.50 999.94 1000.80 1002.29 1003.18 1003.61 1004.70 1005.46 1006.17 1006.75 1007.11 1007.46 1008.44 1008.85 1009.24 1009.77 1010.09 1010.44 1010.94 1011.39 1011.96 1012.66 1013.23 1013.89 1014.32 1014.60 1015.55 1016.12 1016.28 1016.62 1017.17 1017.76 1018.14 1018.30 1018.29 1018.38
1003.50 1002.80 1001.53 1000.43 999.02 997.68 997.81 997.94 998.37 998.61 998.96 999.07 999.12 999.42 1000.27 1001.52 1002.55 1003.12 1003.76 1004.54 1005.43 1005.72 1006.70 1007.10 1007.43 1007.70 1008.30 1009.19 1010.01 1010.49 1011.04 1011.40 1011.74 1012.05 1012.56 1013.30 1013.90 1014.29 1014.71 1015.41 1016.47 1016.64 1016.53 1017.39 1017.68 1018.18 1018.64 1018.42 1018.47
1002.99 1002.17 1001.03 1000.14 999.02 998.16 997.74 997.77 998.12 998.42 998.37 998.74 999.09 999.31 999.98 1001.13 1002.02 1002.81 1003.67 1004.42 1005.31 1006.08 1006.31 1006.65 1007.19 1007.51 1007.99 1008.44 1009.40 1010.34 1011.00 1011.46 1011.96 1012.46 1012.79 1013.24 1013.72 1014.34 1015.11 1015.66 1016.44 1016.73 1016.49 1017.39 1017.46 1018.05 1018.49 1018.33 1018.45
1001.97 1000.87 1000.94 1000.22 999.74 999.01 998.51 998.40 998.31 998.34 998.24 998.45 998.47 998.74 999.21 1000.28 1001.78 1002.40 1002.85 1003.49 1004.45 1005.42 1006.22 1006.41 1006.81 1007.14 1007.47 1008.22 1008.89 1009.60 1010.38 1011.19 1011.80 1012.54 1012.78 1013.31 1013.64 1014.31 1015.09 1016.20 1016.60 1016.78 1016.79 1017.61 1017.68 1018.03 1018.09 1018.12 1018.31
1001.39 1000.84 1000.38 999.94 999.64 999.23 998.81 998.79 998.71 998.65 998.47 998.55 998.51 998.69 998.89 999.69 1000.37 1001.36 1002.10 1002.80 1003.47 1004.62 1005.63 1005.93 1006.40 1006.75 1007.23 1007.86 1008.89 1009.66 1010.17 1010.83 1011.59 1012.39 1012.42 1013.08 1013.89 1014.47 1014.82 1015.44 1015.99 1016.79 1016.64 1017.37 1017.71 1017.98 1017.89 1018.04 1018.22
1000.81 1000.28 999.86 999.46 999.17 999.03 998.83 998.66 998.43 998.34 998.47 998.44 998.42 998.55 998.72 999.05 999.14 999.63 1000.23 1000.90 1002.15 1003.66 1004.92 1005.62 1005.97 1006.48 1007.19 1007.91 1008.64 1009.50 1010.17 1010.64 1011.17 1011.92 1012.51 1012.71 1013.24 1014.18 1014.72 1014.84 1015.37 1015.77 1016.27 1016.86 1017.69 1017.99 1018.27 1018.66 1017.64
1001.32 1000.67 1000.03 999.45 999.27 999.03 998.80 998.38 998.48 998.04 997.88 997.77 997.76 997.98 998.41 998.93 999.10 999.26 999.68 999.92 1000.67 1002.42 1004.08 1005.13 1005.77 1006.23 1007.00 1007.68 1008.15 1009.05 1009.75 1010.39 1010.97 1011.56 1012.23 1012.37 1012.69 1013.29 1014.35 1014.98 1015.09 1015.58 1016.17 1016.92 1017.46 1018.08 1018.83 1019.30 1019.21
1001.36 1000.97 1000.22 999.54 998.99 998.17 997.78 997.15 997.13 997.42 997.43 997.09 997.16 997.29 997.57 998.13 998.70 999.13 999.48 999.68 999.95 1001.18 1002.82 1004.14 1005.30 1006.17 1006.93 1007.51 1008.15 1008.76 1009.51 1010.13 1010.91 1011.32 1011.95 1012.46 1012.83 1013.22 1014.08 1015.05 1015.62 1015.83 1016.27 1016.93 1017.70 1018.42 1018.84 1019.55 1019.69
1001.78 1001.03 999.63 998.73 997.84 996.88 996.56 996.28 997.32 997.13 997.01 997.16 997.60 997.96 997.91 997.92 998.36 998.67 999.03 999.48 999.86 1000.61 1002.05 1003.92 1004.85 1006.02 1006.50 1007.23 1008.06 1008.74 1009.38 1009.85 1010.70 1011.30 1011.64 1012.14 1012.77 1013.01 1013.69 1015.16 1015.62 1016.07 1016.44 1017.01 1017.58 1018.26 1018.95 1019.65 1020.34
1000.80 999.58 998.50 997.35 996.76 996.18 995.90 995.62 996.46 996.66 996.83 996.91 997.11 997.60 997.88 997.80 997.85 997.97 998.15 998.26 998.75 999.97 1001.93 1003.53 1004.95 1005.87 1006.65 1007.05 1007.65 1008.32 1009.04 1009.49 1010.08 1010.60 1011.07 1011.83 1012.60 1013.22 1013.88 1014.66 1015.50 1015.62 1016.38 1016.83 1017.05 1017.89 1018.67 1019.60 1020.64
999.82 999.02 998.20 997.25 997.23 996.87 996.10 995.52 996.39 996.57 996.69 996.50 996.49 996.64 996.89 997.02 997.21 997.51 997.92 998.27 998.20 999.65 1001.63 1003.40 1004.85 1005.75 1006.82 1007.13 1007.65 1008.33 1009.00 1009.24 1009.65 1010.24 1010.68 1011.63 1012.29 1012.92 1013.89 1014.60 1015.19 1015.44 1016.04 1016.64 1016.89 1017.69 1018.47 1019.32 1020.03
1000.20 999.69 998.75 998.12 997.82 997.43 997.15 995.86 996.73 996.51 996.56 996.54 996.43 996.41 996.43 996.53 996.87 997.35 997.63 998.46 998.58 999.47 1001.10 1002.63 1004.26 1005.56 1006.55 1007.46 1007.72 1008.33 1008.76 1008.96 1009.52 1009.97 1010.22 1011.13 1012.02 1012.66 1013.30 1014.18 1014.58 1014.83 1015.10 1015.98 1016.61 1017.52 1018.38 1019.44 1020.19
1000.31 999.74 999.03 998.28 998.08 998.12 997.75 995.68 997.01 996.42 996.33 996.34 996.18 996.02 996.07 996.32 996.95 997.58 997.84 997.33 998.40 999.36 1000.65 1002.34 1003.85 1005.16 1006.17 1007.03 1007.64 1008.02 1008.64 1009.15 1009.01 1009.51 1009.93 1010.62 1011.17 1012.03 1012.56 1013.13 1013.97 1014.23 1014.80 1015.61 1016.32 1016.98 1018.07 1019.16 1019.81
1000.31 999.98 999.46 998.97 998.54 997.86 998.22 996.96 995.55 996.60 996.17 995.96 995.49 995.11 995.29 995.93 997.33 998.03 998.12 998.61 999.57 1000.29 1001.03 1002.29 1003.51 1004.69 1005.75 1006.62 1007.48 1008.05 1008.62 1009.04 1009.19 1009.14 1009.43 1010.06 1010.60 1010.99 1011.51 1012.17 1013.29 1013.67 1014.28 1014.82 1015.57 1016.44 1017.32 1018.52 1019.65
1000.15 1000.46 1000.04 999.92 999.94 998.13 998.88 998.79 994.79 997.12 996.00 995.94 995.39 995.15 995.27 996.80 997.99 998.99 999.71 1000.27 1000.28 1000.75 1001.13 1001.64 1002.77 1004.00 1005.02 1006.10 1006.91 1007.45 1007.68 1007.98 1008.25 1008.31 1008.57 1009.40 1009.68 1010.39 1010.70 1011.44 1012.22 1012.96 1013.35 1013.98 1014.90 1015.70 1016.52 1017.39 1018.39
1000.21 1001.12 1001.53 1001.72 1001.32 1000.61 996.69 999.58 995.68 997.04 996.28 995.81 995.57 996.55 997.01 997.67 998.94 999.73 1000.58 1001.19 1001.44 1001.76 1001.90 1002.15 1002.86 1003.03 1003.78 1004.79 1006.05 1007.05 1007.49 1007.65 1007.60 1007.78 1008.10 1008.73 1009.49 1010.02 1010.19 1010.59 1011.71 1012.03 1012.48 1013.27 1014.14 1015.16 1015.74 1016.58 1017.15
1001.55 1002.05 1002.38 1002.51 1003.09 1001.59 999.45 999.51 995.65 997.01 996.77 997.53 997.74 998.21 998.74 999.30 1000.02 1000.65 1001.29 1001.85 1001.89 1002.17 1002.34 1002.40 1002.63 1002.89 1003.32 1003.96 1005.01 1005.89 1006.81 1007.45 1007.50 1007.53 1007.74 1008.07 1008.56 1009.25 1009.99 1010.12 1011.07 1011.55 1011.91 1012.47 1013.31 1014.44 1015.14 1015.92 1016.40
1002.44 1003.22 1003.62 1003.06 1002.11 1001.40 1000.24 999.57 997.79 997.50 998.22 999.37 1000.27 1000.69 1001.15 1001.26 1001.35 1001.63 1001.83 1001.99 1002.24 1002.30 1002.45 1002.55 1002.92 1002.89 1003.40 1003.95 1004.40 1005.10 1005.75 1006.70 1007.09 1007.07 1007.07 1007.51 1007.87 1008.66 1009.37 1010.02 1010.34 1010.81 1011.48 1012.13 1012.85 1014.03 1014.58 1015.28 1015.85
1004.03 1004.42 1005.28 1004.86 1003.85 1002.72 1001.46 1000.02 998.21 998.14 999.86 1001.05 1001.55 1002.28 1002.62 1002.83 1002.72 1002.42 1002.30 1002.27 1002.44 1002.56 1002.58 1002.43 1002.63 1002.87 1003.13 1003.74 1004.21 1004.50 1005.00 1005.67 1006.22 1006.48 1006.76 1006.76 1006.99 1007.15 1008.66 1009.68 1010.34 1010.65 1011.06 1011.84 1012.54 1013.41 1014.22 1014.83 1015.18
1005.03 1005.75 1006.35 1007.09 1006.12 1005.48 1003.31 1001.16 1000.08 999.88 1000.67 1001.88 1002.66 1003.29 1003.81 1003.82 1003.67 1003.36 1002.95 1002.80 1002.70 1002.30 1002.10 1002.19 1002.05 1002.19 1002.57 1002.92 1003.54 1004.40 1004.77 1005.02 1005.29 1005.86 1006.30 1006.46 1006.86 1007.45 1008.04 1008.96 1009.63 1010.27 1010.59 1011.11 1011.81 1012.61 1013.43 1014.34 1014.98
1006.20 1006.42 1007.30 1008.32 1007.48 1005.88 1003.68 1002.26 1000.84 1001.27 1002.30 1002.54 1002.65 1003.34 1003.56 1003.61 1003.33 1002.92 1002.68 1002.51 1002.09 1001.81 1001.77 1001.73 1001.37 1000.94 1001.21 1001.80 1002.88 1003.46 1004.04 1004.56 1004.96 1005.53 1005.87 1006.33 1006.81 1007.02 1007.96 1008.76 1009.18 1009.05 1009.32 1010.20 1011.20 1011.93 1012.74 1013.65 1014.53
1006.68 1007.28 1008.42 1009.03 1008.49 1007.50 1006.12 1003.80 1003.38 1003.94 1004.27 1003.98 1003.61 1003.31 1003.15 1002.85 1002.56 1002.21 1001.90 1001.63 1001.38 1001.23 1000.76 1000.33 1000.21 1000.21 1000.32 1000.93 1001.44 1002.38 1003.38 1004.26 1004.82 1005.24 1005.60 1006.11 1006.66 1007.14 1007.65 1008.52 1009.11 1009.25 1009.66 1009.47 1010.67 1011.99 1012.44 1013.09 1014.24
1007.56 1007.55 1008.31 1009.20 1009.26 1009.17 1008.70 1006.05 1005.62 1005.18 1005.38 1005.57 1005.25 1004.24 1003.82 1003.05 1002.30 1002.02 1001.64 1001.42 1001.15 1001.30 1000.46 999.47 998.93 998.99 999.56 1000.41 1001.32 1002.61 1003.45 1004.04 1004.51 1004.82 1005.23 1005.64 1006.46 1007.25 1007.67 1008.46 1009.20 1009.20 1010.07 1011.26 1010.54 1011.73 1012.59 1013.12 1014.26
Wind_Speed
6 10 8 9 7 8 17 21 4 6 2 3 8 7 12 12 7 10 11 4 14 17 15 16 15 13 12 13 15 16 17 17 18 18 17 16 16 16 15 13 12 13 13 12 11 10 9 8 7
10 14 9 6 9 13 12 7 7 5 7 6 5 11 10 10 17 13 12 12 11 18 15 16 17 17 14 14 16 16 17 18 18 18 17 16 16 15 13 12 13 12 11 9 9 8 8 7 6
11 16 8 7 12 16 8 8 3 6 2 7 7 5 6 5 8 8 12 12 10 13 15 17 17 17 17 17 19 19 19 19 19 19 18 18 18 17 13 12 12 13 11 9 9 8 7 7 5
7 8 7 8 16 19 10 4 6 2 6 5 9 8 6 12 6 9 13 14 13 10 13 20 18 16 16 16 19 20 20 19 19 20 20 19 19 18 16 14 13 13 13 10 8 8 7 6 5
10 8 12 16 20 20 4 3 7 5 8 4 6 13 6 9 11 13 14 15 13 13 15 15 18 17 17 16 17 18 20 19 19 18 17 16 16 15 13 20 17 14 11 9 8 8 8 6 5
10 11 13 15 16 6 2 4 4 7 11 6 7 12 6 16 12 9 9 7 11 11 15 14 16 16 16 16 16 17 16 17 16 16 16 16 16 15 16 12 20 14 11 11 10 9 8 6 5
12 11 16 20 19 19 8 10 1 7 11 12 8 7 5 13 12 12 11 9 5 8 10 12 12 14 14 14 14 14 15 14 16 17 16 15 15 16 18 14 16 12 10 10 11 11 9 7 6
12 12 19 17 15 17 5 4 3 7 12 9 6 4 5 14 13 11 11 11 6 7 8 12 13 11 11 10 13 14 16 17 18 19 19 19 17 18 19 14 12 14 14 13 12 11 10 8 4
17 13 14 18 19 15 7 4 4 7 8 12 8 11 7 14 13 11 9 11 8 6 9 10 11 13 13 11 10 14 16 17 19 20 21 16 9 12 14 12 12 13 17 14 14 12 8 7 1
17 13 20 19 19 17 17 16 10 14 15 13 14 13 12 18 14 13 12 11 12 11 10 11 11 12 13 10 13 12 12 10 10 10 12 8 11 9 10 14 13 13 18 15 16 13 10 7 3
19 19 19 20 24 22 22 21 16 18 18 17 15 12 14 17 13 12 14 15 14 13 10 12 12 13 13 9 9 7 7 7 7 11 10 9 8 9 9 6 6 7 13 6 8 7 5 6 3
24 24 23 23 24 21 23 18 21 20 19 18 18 16 9 11 18 16 14 14 13 15 12 15 15 11 11 9 7 7 7 7 7 8 9 9 6 9 9 7 9 6 6 8 5 3 4 7 7
23 19 20 22 20 22 21 19 21 21 18 18 17 16 13 16 15 16 19 17 17 16 15 13 14 13 11 12 9 9 8 8 9 9 9 9 9 8 8 8 8 6 6 5 4 4 4 2 10
19 22 23 23 22 23 23 24 21 21 20 20 19 18 16 16 18 10 12 13 14 18 17 14 12 10 11 10 14 10 9 9 8 7 6 6 9 9 8 4 6 5 5 5 5 5 5 2 1
12 17 20 21 24 25 24 25 21 15 17 20 17 10 11 5 12 7 6 8 9 19 19 18 11 9 14 12 11 9 9 9 8 8 9 6 6 9 9 7 6 5 5 7 5 4 5 4 5
22 21 20 21 24 23 13 17 16 14 11 7 7 10 11 6 13 12 11 10 8 15 20 16 12 8 12 13 11 8 9 8 8 8 6 6 4 10 11 7 7 7 6 6 5 6 8 6 6
18 19 25 24 20 19 19 22 18 12 14 14 9 10 12 12 14 13 11 13 9 4 18 18 13 14 9 11 9 10 11 10 9 10 10 10 8 7 9 8 6 9 7 7 9 7 9 9 7
17 20 22 22 19 21 25 25 19 16 19 16 12 12 13 10 12 10 7 7 9 14 17 16 13 12 8 6 8 5 8 6 7 7 8 11 9 11 9 8 9 9 9 8 9 8 9 11 10
22 24 27 24 22 23 20 25 18 17 16 16 16 14 15 14 4 4 6 14 7 14 18 18 16 13 9 4 6 5 8 8 9 9 13 14 11 12 12 10 11 11 10 10 10 10 12 10 10
20 24 24 22 22 20 19 29 18 18 17 18 19 20 18 6 4 8 10 9 9 13 15 15 15 15 12 9 6 3 7 6 9 9 11 14 15 15 13 11 11 12 10 11 12 12 10 9 11
19 20 22 26 24 22 17 26 21 14 18 20 20 17 10 5 3 11 9 11 8 5 13 15 15 14 13 11 7 2 6 3 7 10 11 13 16 17 16 11 13 13 11 11 14 14 14 12 9
19 18 20 21 19 21 9 13 37 14 19 14 19 17 6 13 11 11 16 16 12 7 11 15 14 17 14 13 10 12 9 9 9 10 10 13 17 17 16 13 16 15 10 13 12 12 13 14 12
18 17 15 21 19 21 31 11 25 17 19 17 4 14 12 13 9 12 13 12 13 12 12 9 11 16 16 16 12 10 11 9 7 10 14 14 14 16 17 15 15 15 11 13 15 16 12 13 11
13 15 14 19 15 18 25 18 21 14 9 20 12 13 11 11 11 8 8 10 11 9 8 10 11 9 14 15 14 14 14 11 8 9 10 11 12 12 15 15 14 14 12 15 14 14 15 13 12
12 14 8 8 8 13 20 16 12 17 19 15 13 18 18 18 14 9 8 7 4 3 4 3 6 9 8 12 13 14 14 14 13 13 12 14 12 11 14 14 15 14 12 12 14 15 13 13 12
7 6 6 8 12 14 20 12 10 15 19 17 14 16 17 17 17 18 17 11 10 11 10 6 5 6 6 9 11 13 15 11 9 10 8 10 12 14 15 13 12 14 15 14 14 12 11 10 8
3 5 1 4 15 11 13 24 24 14 17 16 16 15 15 16 17 20 21 18 15 17 16 14 10 8 6 12 11 12 12 13 11 8 6 7 8 9 14 16 15 15 15 15 15 11 12 8 5
12 8 6 3 5 10 12 19 11 19 21 23 23 18 18 18 18 17 15 15 17 13 11 16 18 17 11 8 12 11 12 12 10 8 9 8 8 11 13 15 14 17 16 15 14 11 9 10 5
9 10 2 6 7 6 4 11 9 15 20 24 26 29 28 24 18 17 14 14 13 15 16 14 16 15 14 12 13 14 12 12 9 10 9 8 6 9 13 13 13 11 9 13 11 10 11 12 8
19 18 17 7 6 6 5 12 17 18 21 22 25 23 21 22 14 17 11 15 14 13 22 21 16 14 11 1 5 1 7 10 11 11 11 11 10 8 11 10 10 9 8 4 11 13 10 12 10
Wind_Direction
218 226 231 247 246 233 245 240 123 52 51 30 16 333 324 313 325 142 194 140 115 124 132 131 122 124 124 125 132 136 136 134 130 129 128 125 122 117 115 118 120 127 118 111 98 96 93 84 73
242 229 232 275 248 256 253 126 89 230 58 33 295 263 252 260 99 133 150 158 152 131 147 142 135 136 136 133 132 137 138 136 133 131 132 130 127 125 127 130 130 127 111 119 112 108 101 92 77
266 270 263 233 231 261 299 47 55 73 64 261 260 228 300 73 52 108 114 143 138 135 156 141 142 143 145 144 141 143 143 142 140 141 141 139 140 137 134 128 121 108 119 125 120 113 107 97 86
255 226 238 245 261 260 271 339 175 224 241 167 264 287 129 85 106 108 136 138 142 161 160 144 143 147 149 149 149 147 146 145 146 148 150 149 146 143 138 128 112 101 103 109 113 109 103 94 86
240 271 249 260 257 256 220 286 343 288 264 238 208 259 164 126 99 124 142 147 156 164 123 150 147 151 155 151 148 149 148 148 150 151 149 141 136 135 130 114 100 96 104 119 114 110 107 96 63
235 228 263 258 271 279 88 210 236 234 276 218 240 273 309 124 137 129 133 166 149 149 137 149 154 157 160 158 153 151 151 147 146 143 140 142 132 117 108 114 110 119 133 130 124 112 101 92 68
253 266 266 289 302 303 341 47 7 257 281 259 265 245 88 148 144 137 145 139 156 141 147 144 165 165 163 162 158 149 146 142 136 131 126 116 112 116 102 94 107 123 123 124 121 113 101 80 54
237 265 275 274 276 283 100 102 312 294 295 331 340 283 327 130 119 142 145 134 178 145 143 157 163 174 174 170 148 148 143 141 133 126 122 121 120 113 109 118 134 140 133 127 119 107 101 90 59
261 265 262 265 269 291 122 171 207 273 256 280 276 256 118 123 140 157 155 153 163 167 171 168 171 172 174 166 154 143 140 133 129 128 127 128 125 120 132 138 144 131 123 125 122 115 111 112 103
239 247 257 261 282 297 310 292 295 273 256 247 235 242 157 156 165 173 180 184 182 184 181 186 182 183 176 172 153 157 151 149 150 142 144 133 135 138 117 125 129 125 124 129 130 137 156 163 158
248 246 257 272 286 299 306 297 291 286 275 270 267 249 253 162 178 197 193 190 197 189 184 195 192 187 183 164 161 159 157 161 145 155 150 144 140 128 128 131 134 137 126 132 138 160 187 138 122
257 261 261 273 273 293 295 297 294 289 291 297 298 301 303 187 186 196 210 203 192 178 193 197 196 199 166 154 154 145 141 146 147 168 143 150 146 155 147 155 155 169 161 154 150 188 127 128 115
272 273 277 275 280 273 280 281 278 275 278 275 272 267 272 273 264 206 202 202 187 176 188 209 193 189 159 160 150 156 152 155 154 159 169 164 154 160 152 169 154 158 123 135 141 106 87 116 134
289 293 292 292 295 287 281 277 276 272 272 267 258 244 243 257 259 273 280 219 188 169 183 191 210 170 157 155 158 161 158 158 154 153 179 188 158 157 157 122 131 121 130 117 120 119 105 98 58
293 291 286 278 273 269 264 261 266 293 287 269 262 275 252 250 283 266 300 306 189 169 175 186 177 188 160 158 157 157 162 157 161 163 169 189 172 158 146 140 134 137 124 120 131 164 126 116 77
277 275 275 272 266 266 248 259 270 270 293 316 311 301 278 233 242 240 226 236 273 174 170 179 174 165 173 165 168 163 162 159 167 168 167 163 137 152 148 153 158 160 147 160 161 154 136 114 103
261 263 268 270 274 296 268 276 289 290 277 282 226 237 254 255 251 255 229 213 200 213 162 171 184 174 185 174 165 168 172 167 175 172 167 169 145 140 133 147 161 150 161 176 153 145 141 131 122
281 290 291 291 297 306 301 295 307 309 302 289 276 283 265 263 274 272 305 304 174 127 151 161 171 175 171 167 156 145 174 158 152 158 154 152 154 147 144 160 170 177 174 179 157 154 145 144 144
301 297 291 290 295 297 289 286 294 289 287 295 287 276 282 258 333 287 221 271 184 138 150 161 160 168 163 161 150 153 179 174 174 174 164 168 165 167 169 182 171 180 168 171 151 150 148 148 133
278 283 284 286 293 285 296 293 300 296 279 271 268 268 267 253 330 298 296 231 169 148 154 155 160 165 175 176 186 170 182 199 180 172 169 169 172 178 180 172 173 178 173 166 163 156 152 152 152
271 274 287 288 297 287 281 284 284 294 305 306 296 263 259 177 85 25 45 61 54 128 157 154 167 166 177 176 171 150 186 192 197 186 179 185 181 175 181 173 175 184 184 171 170 167 164 158 172
278 283 299 298 302 290 319 297 285 302 286 286 297 302 82 78 72 47 34 27 17 8 151 169 169 171 176 175 179 194 200 192 200 196 184 182 181 181 182 184 177 185 180 170 175 169 168 166 171
286 307 319 308 290 293 289 268 273 292 287 288 337 70 78 90 86 48 30 28 31 23 11 12 200 178 173 178 179 192 216 219 204 200 181 183 190 193 187 185 183 184 178 176 174 173 171 174 174
298 299 294 286 272 267 277 284 286 293 304 44 31 47 58 47 58 55 35 31 14 17 10 0 347 204 178 180 182 183 205 222 212 207 197 190 183 185 198 187 185 184 181 176 174 175 172 176 185
262 260 294 273 228 246 261 273 287 314 54 63 21 19 19 8 15 4 339 325 309 327 333 339 325 316 181 185 183 189 198 216 225 212 197 187 180 189 194 189 188 182 180 172 172 175 182 182 183
322 341 217 280 285 297 309 273 258 306 79 64 35 15 360 354 344 338 336 345 335 327 328 283 267 263 181 189 203 204 205 210 213 214 212 201 190 180 185 187 195 183 181 175 179 174 181 182 172
38 227 349 270 258 263 263 278 275 279 21 16 4 352 343 339 333 326 320 311 310 311 301 290 268 249 234 198 197 207 208 207 204 202 210 194 189 184 176 191 187 188 182 175 175 172 173 169 162
250 282 255 206 255 245 241 268 278 13 354 342 343 341 332 321 308 300 289 287 287 276 281 277 279 244 235 193 197 201 203 208 208 195 186 187 177 176 178 189 203 186 178 171 168 163 155 143 141
263 258 304 316 269 282 271 256 50 0 340 336 333 332 324 313 306 308 295 292 301 290 282 264 258 240 217 220 201 199 205 201 189 187 176 168 157 171 170 178 191 176 191 156 147 149 148 139 133
287 283 279 260 283 269 294 264 327 323 331 319 307 303 322 304 301 297 309 299 301 293 286 262 257 244 218 355 8 192 213 187 186 185 174 159 164 167 163 163 159 142 140 178 141 148 147 138 125